sat.trackr.live / text

‹ back to catalog

STARLINK-36170

NORAD 67083 · 2025-298J

PAYLOAD ACTIVE UNKNOWN

§ Identity

Operator
Country
US
Launch date
2025-12-14
Launch site
AFWTR
Launch vehicle
Mass (kg)
RCS (m²)

Purposes: comms

External: N2YO · Heavens-Above · Gunter

§ Orbital elements

Epoch: 2026-05-25T02:49:13.694304Z

Period
96.11 min
Inclination
70.0006°
Eccentricity
0.0002667
Mean motion
14.98338098 rev/d
Perigee alt
570.2 km
Apogee alt
573.9 km
Semi-major
6,950.2 km
B*
3.1289e-4
RAAN
181.8249°
Arg perigee
279.1557°
Mean anomaly
80.9300°
Rev number
2,465

§ Raw data

STARLINK-361701 67083U 25298J   26145.11751961  .00003643  00000+0  31289-3 0  99902 67083  70.0006 181.8249 0002667 279.1557  80.9300 14.98338098 24659

JSON: /api/v1/satellites/67083 · /tle

For live sub-satellite position, see the globe view (requires WebGL).

§ Visibility from observer

Set your observer location to see the next 7 days of passes ≥ 10°. The values pass through the URL so the page stays shareable.

No JS? Fill the form by hand. The geolocation button needs JavaScript.